User: anonymous   Login
Location: Bethera
(33.2010°N, 79.7880°W)
Time: 09:32:44
(UTC-04:00)
Language:

Cosmos 1833 Rocket - Orbit

View from above orbital plane
View from above orbital plane
View from above satellite
View from above satellite

Ground track
Ground track

The orbit data is extracted from the following two-line orbital elements,

1 17590U 87027B   14296.81471437  .00000275  00000-0  16147-3 0  8123
2 17590 071.0051 026.9072 0006523 320.6203 039.4446 14.16652852427111
Epoch (UTC): 23 October 2014 19:33:11
Eccentricity: 0.0006523
inclination: 71.0051°
perigee height: 832 km
apogee height: 841 km
right ascension of ascending node: 26.9072°
argument of perigee: 320.6203°
revolutions per day: 14.16652852
mean anomaly at epoch: 39.4446°
orbit number at epoch: 42711

The dashed part of the orbit path shows where the satellite is in the earth's shadow,  

DLR